Location: Bacharowice
(49.9333°N, 19.5833°E)
Time: 04:02:17
(UTC+00:00)

Sich 1 Rocket - Pass Details

Date: 11 May 2021
Orbit: 615 x 653 km, 82.5° (Epoch: 22 June)

Event Time Altitude Azimuth Distance (km) Brightness Sun altitude
Rises 22:56:23 0° 349° (N) 2,984 8.4 -21.8°
Reaches altitude 10° 22:58:40 10° 349° (NNW) 2,064 7.3 -21.8°
Maximum altitude 23:03:15 84° 262° (W) 656 3.5 -21.7°
Enters shadow 23:04:00 62° 184° (S) 728 3.5 -21.7°
